This is the latest recevied weather packets stored in our database for station/object E24YPM-1. If no packets are shown the sender has not sent any weather packets the latest 10 day(s).
| Time | Temp. | Humidity | Pressure | Rain* | Wind** | Luminosity | Snow |
|---|---|---|---|---|---|---|---|
| 1777762348 | 32.78° C | 44% | 1004 hPa | - | - | 0 W/m² | - |
| 1777761436 | 32.78° C | 43% | 1004 hPa | - | - | 0 W/m² | - |
| 1777760525 | 32.78° C | 41% | 1003 hPa | - | - | 0 W/m² | - |
| 1777759606 | 32.22° C | 39% | 1003 hPa | - | - | 0 W/m² | - |
| 1777758695 | 32.22° C | 38% | 1003 hPa | - | - | 0 W/m² | - |
| 1777757776 | 31.67° C | 35% | 1003 hPa | - | - | 0 W/m² | - |
| 1777756857 | 31.11° C | 33% | 1003 hPa | - | - | 0 W/m² | - |
| 1777755933 | 30.56° C | 28% | 1002 hPa | - | - | 0 W/m² | - |
| 1777755017 | 30° C | 28% | 1002 hPa | - | - | 0 W/m² | - |
| 1777754138 | 30° C | 28% | 1002 hPa | - | - | 0 W/m² | - |
| 1777753179 | 30° C | 28% | 1003 hPa | - | - | 0 W/m² | - |
| 1777752273 | 30° C | 29% | 1002 hPa | - | - | 0 W/m² | - |
| 1777751347 | 30.56° C | 28% | 1002 hPa | - | - | 0 W/m² | - |
| 1777750424 | 30.56° C | 28% | 1003 hPa | - | - | 0 W/m² | - |
| 1777749539 | 30.56° C | 28% | 1003 hPa | - | - | 0 W/m² | - |
| 1777748593 | 30.56° C | 28% | 1003 hPa | - | - | 0 W/m² | - |
| 1777747691 | 31.11° C | 28% | 1003 hPa | - | - | 0 W/m² | - |
| 1777746768 | 30.56° C | 28% | 1003 hPa | - | - | 0 W/m² | - |
| 1777745856 | 31.11° C | 28% | 1003 hPa | - | - | 0 W/m² | - |
| 1777744942 | 31.11° C | 28% | 1003 hPa | - | - | 0 W/m² | - |
| 1777744028 | 31.11° C | 28% | 1003 hPa | - | - | 0 W/m² | - |
| 1777743114 | 31.11° C | 29% | 1003 hPa | - | - | 0 W/m² | - |
| 1777742201 | 31.11° C | 29% | 1003 hPa | - | - | 0 W/m² | - |
| 1777741288 | 31.67° C | 28% | 1003 hPa | - | - | 0 W/m² | - |
| 1777740373 | 31.67° C | 29% | 1004 hPa | - | - | 0 W/m² | - |
* Rain since midnight (hover to see other rain measurements)
** Current wind speed in m/s (hover to see current wind gust speed)